User: anonymous   Login
Location: Ciserano
(45.5833°N, 9.6000°E)
Time: 16:48:26
(UTC+00:00)
Language:

Cosmos 1844 Rocket - Orbit

View from above orbital plane
View from above orbital plane
View from above satellite
View from above satellite

Ground track
Ground track

The orbit data is extracted from the following two-line orbital elements,

1 17974U 87041B   21058.93798124  .00000043  00000-0  44690-4 0  9991
2 17974  71.0082 301.7620 0012393 136.4098 240.9676 14.17273575747987
Epoch (UTC): 27 February 2021 22:30:41
Eccentricity: 0.0012393
inclination: 71.0082°
perigee height: 825 km
apogee height: 843 km
right ascension of ascending node: 301.7620°
argument of perigee: 136.4098°
revolutions per day: 14.17273575
mean anomaly at epoch: 240.9676°
orbit number at epoch: 74798

The dashed part of the orbit path shows where the satellite is in the earth's shadow,  

DLR